Showing default

ORBCOMM FM 11, 25114

Orbit data source: Space-Track

ORBCOMM FM 11, 25114 is a payload satellite owned by Orbcomm (US) in LEO that was launched on Tue, 23 Dec 1997 UTC via a PEGASUS XL/HAPS launch vehicle from the Pegasus Launch, Eastern Range Air Space (ERAS). Payload-class satellites include a variety of spacecraft equipped with specific instruments for various scientific and technological missions. These include communications satellites like Starlink; space stations such as the ISS; scientific satellites like the Hubble; Earth observation satellites from companies like Planet Labs, Umbra, and HawkEye 360; GPS; miniature CubeSats for education and research; and military/defense satellites.

Loading next visibility...
Identifier
25114, 1997-084C
Orbit
LEO
Country
Flag of USUS / ORB
Related business
Manufacturer
OSC-Germantown
Mission
Non-operational Commercial Communications
Bus & Motor
MICROSTAR, Unknown motor
Mass
42 kg wet, 42 kg dry
Launch date (UTC)
1997-12-23 (28 years ago)
Launch vehicle
PEGASUS XL/HAPS
Launch site
Pegasus Launch, Eastern Range Air Space (ERAS)
Object type
Payload
Rocket body
Debris
Shape & HBR
Cyl + 2 Pan, 4.2 m
Radar Cross Section
1.484 m², Medium (>0.1 m² and < 1m²)

Expand to show TLE details & history
Last TLE update: 2 days ago

TLE from 2 days ago
0 ORBCOMM FM 11
1 25114U 97084C   26171.32588718  .00000794  00000-0  25725-3 0  9994
2 25114  45.0144  42.9299 0005023 294.7481  65.2848 14.46710717494764
Epoch: 2026-06-20T07:49Z
TLE epoch observation values (Epoch: 2026-06-20T07:49:16.652Z)
Latitude
-0°
Longitude
17.06839°
Altitude
734.92 km
Speed
7.49 km/s
True Right ascension
02h 51m 43s
True Declination
0° 00' 00"
Sunlit
Object was in daylight at epoch
Visualization orbit readout
Latitude
Unknown
Longitude
Unknown
Altitude
Unknown
Speed
Unknown
Apparent Right ascension
Unknown
Apparent Declination
Unknown
Sunlit
N/A
Visualization observer readout
Local Sidereal Time
23:09:08
Azimuth
Unknown
Elevation
Unknown
Doppler factor
Unknown
Orbital elements
Apogee altitude
741.536 km
Perigee altitude
734.387 km
Semi-major axis
7,116.099 km
Eccentricity
0.0005
Inclination
45.0144°
RAAN
42.9299°
Arg. of periapsis
294.7481°
True anomaly
65.3371°
Mean anomaly
65.2848°
Eccentric anomaly
65.31095°
Mean motion
3.6156 °/min
Orbital period
99.57 mins
BSTAR
0.00025725
Loading maneuver chart data...
Computing Atmospheric mass density...

Documentation

Showing up to 5 results
|